Vertical_Velocity
0 -6 -2 -4 -2 -1 -0 0 0 -4 -2 -2 -0 -1 -2 -2 -3 -3 -1 -1 2 -7 19 -3 -10 2 -1 -6 -0 -2 0 -0 -0 -2 -2 2 -6 -3 1 4 3 3 2 1
-7 -3 -5 -0 0 1 1 0 -3 -6 -1 -3 -1 -4 1 -0 1 3 3 1 3 6 -1 -2 2 11 9 -0 -4 -2 -1 -1 2 -3 2 1 3 1 2 3 3 0 0 3
-3 -6 0 1 0 1 0 -2 -1 -4 -1 -2 -1 -7 -2 -5 -1 0 2 4 2 4 0 -1 -3 -20 3 -5 -9 0 4 5 -1 1 3 4 6 6 4 -0 4 7 3 -0
-3 -2 1 -0 -0 -3 0 -2 0 0 -3 -4 -4 -7 -0 -1 -2 -2 -2 -3 1 11 6 1 1 3 1 4 14 3 -1 -3 -0 5 -0 1 -8 -3 -4 1 -1 -8 3 5
-11 -0 -0 -2 1 0 -6 0 -1 -1 -0 -2 -2 -7 -12 -0 -1 -1 -2 -3 -1 -1 -3 3 10 1 7 11 9 9 8 1 3 -3 -0 -4 1 6 -0 -4 -5 5 0 -1
-3 -0 0 -1 -0 0 -0 -0 -2 -1 -2 -5 -3 -6 -8 -2 -2 -1 -1 -4 -6 -5 -2 -5 -2 4 4 3 8 -1 -1 2 2 -0 5 -1 -2 -1 -1 -6 -8 -5 -2 -1
-5 -1 -2 -1 -2 -1 -5 -6 -5 -7 -7 -7 -0 -2 -12 -1 -1 -2 -2 -2 -0 -2 -6 -5 -4 -5 9 1 2 5 -0 2 2 -1 0 -5 4 -4 2 -1 -4 -5 -2 -8
-2 -11 -2 -4 -2 1 1 -5 -7 -3 -2 -5 -1 -3 -12 -1 -1 0 2 3 2 -0 -1 -3 -3 -4 -1 -1 4 9 3 7 2 6 -0 4 13 3 2 -0 -7 -2 -8 -3
-1 -1 -3 -0 -0 -7 -1 -4 -4 -4 -0 -2 -3 -7 -6 1 -1 -1 -2 -2 -0 1 -0 -3 -4 -3 -5 1 -2 2 0 1 8 6 3 -2 5 1 -10 2 5 -1 6 -2
-2 -5 -1 -3 -2 -3 -8 -4 -9 -5 -2 -1 -4 -1 -5 -0 -3 -2 -2 -1 -2 -1 1 -1 -2 -2 1 -2 3 2 -2 -1 -1 4 2 -0 -9 0 4 10 6 -0 -6 0
-1 -7 -10 -4 -3 -0 -7 -2 -4 -7 -3 -3 -1 -10 -5 -1 -0 -1 -2 -1 -2 -1 1 -1 -4 -3 -4 -0 4 4 4 2 5 -1 2 1 -9 8 14 1 2 9 3 -4
1 -4 -1 -3 -1 0 -0 -1 -2 -7 -7 -1 -3 -16 -0 -1 -1 1 -2 -2 0 0 -0 -1 -1 -1 -5 -6 2 -1 -1 -1 5 7 11 1 -1 17 6 -0 4 6 2 2
-5 -2 -3 -13 -11 -5 -0 0 -1 -1 -2 -3 -2 -13 -1 -0 -1 -2 -2 -2 0 -1 -1 0 1 1 -3 -4 -5 -3 -3 -6 -5 -8 -3 -6 -5 -2 4 4 15 5 -1 -1
-3 -0 -7 -9 -10 -3 -1 0 -0 -3 -1 -3 -5 -5 -7 -3 -1 -3 -3 -2 -2 -2 0 -2 0 4 0 -4 -8 -7 -8 -6 -1 -0 -2 4 -2 -4 3 0 2 1 2 2
-5 -1 0 -1 -1 1 -1 -0 -0 0 -4 -4 -7 -1 -5 -2 0 -1 -2 -3 -3 -6 -4 -3 -1 -1 4 5 -0 -7 -2 -5 -4 3 2 2 -1 0 3 7 10 7 10 16
-1 -3 1 -1 -0 1 1 -0 0 -0 -0 1 1 -3 -1 -1 1 -1 -0 -1 -2 -3 -1 -1 3 0 1 5 6 -6 -3 -4 -6 3 -2 12 6 7 10 -5 -2 -0 -3 0
-0 -1 -1 -5 0 -0 -3 -5 -1 -1 -0 -2 -1 -8 0 -3 -1 -1 -3 1 -2 -2 -1 -0 -1 1 4 -5 4 -3 4 3 -6 2 -8 1 6 4 5 12 16 4 9 3
-1 -1 -1 -2 -2 -1 -17 -0 0 -1 -1 0 -0 -1 -0 -1 -2 -3 3 -2 -3 -1 -0 -2 3 1 2 2 5 5 3 4 6 -2 -3 1 -1 -5 -4 -1 3 1 2 4
-1 -2 -1 -2 -1 -8 -3 -1 1 -0 -7 -0 -0 -1 -2 -1 -1 -14 0 2 -1 -1 2 0 2 1 -2 -4 -3 -2 -2 -4 -4 2 -0 8 4 -3 -2 7 11 15 4 7
-1 -2 -5 0 0 -2 -6 -1 -0 -1 -8 -1 0 -1 -0 -1 -1 -6 0 -0 -2 2 0 0 -4 0 0 -2 7 2 -1 1 -3 2 -2 4 16 15 19 4 11 -6 -3 2
-1 -1 -2 -0 -1 -8 -3 -1 1 -3 -22 -1 -1 -1 2 -1 -5 -5 -0 -1 2 -1 3 3 -2 2 -1 -1 2 -3 -1 -2 -1 -3 -11 -7 2 4 0 -3 -7 -5 -4 -6
-3 -2 -1 -0 0 -6 -0 1 -2 -13 -2 -0 0 2 -1 1 -2 1 -2 -1 3 4 -1 -2 2 6 -3 2 5 9 -1 -2 -2 -2 -1 -0 2 -5 -3 1 6 -0 -2 0
-5 -8 -6 -11 -12 -4 1 -4 2 1 1 -5 1 2 2 -2 -2 4 -6 1 6 1 -1 -6 -16 7 2 1 2 -0 -2 1 -3 2 -1 -4 4 6 2 -3 1 -2 1 0
-1 0 -1 -3 -8 -3 -1 -1 3 2 1 5 2 -1 0 -2 1 -1 -3 3 2 8 2 -8 -4 8 -2 1 1 -2 -3 0 -1 -1 -1 -2 -2 -3 -4 -4 -5 1 -4 -4
-5 -0 -2 -4 -5 -2 -4 2 0 -2 -3 -3 -1 1 -2 -2 -1 -1 1 1 2 4 5 -6 1 -1 3 1 -0 0 -2 -6 -2 -2 -3 -0 -2 1 3 -1 -6 -2 -2 2
-2 -6 -3 -8 -5 -1 -5 -1 -2 -2 -1 -1 -1 1 0 -1 0 -0 2 -1 4 7 5 -2 -4 -1 2 1 -1 -1 -0 -0 -3 -3 -4 -1 3 -1 -2 0 0 -3 -4 3
Height
1493 1502 1509 1499 1499 1497 1500 1505 1506 1492 1482 1486 1483 1481 1472 1466 1462 1461 1459 1459 1460 1457 1467 1471 1474 1469 1477 1483 1486 1490 1493 1498 1502 1504 1507 1510 1513 1518 1522 1525 1530 1533 1536 1539
1500 1506 1491 1492 1494 1498 1501 1505 1506 1491 1483 1488 1485 1481 1480 1472 1470 1468 1464 1461 1461 1464 1467 1470 1474 1475 1466 1475 1481 1483 1487 1492 1496 1501 1506 1508 1511 1515 1519 1524 1526 1529 1533 1536
1500 1491 1486 1488 1490 1498 1501 1504 1499 1495 1488 1486 1488 1486 1490 1478 1471 1467 1465 1466 1466 1466 1467 1469 1471 1472 1470 1468 1470 1474 1481 1487 1490 1496 1500 1504 1508 1511 1515 1519 1524 1526 1529 1532
1494 1486 1485 1486 1490 1490 1495 1486 1487 1489 1496 1509 1493 1518 1488 1487 1480 1473 1468 1464 1463 1465 1469 1469 1469 1468 1466 1463 1466 1468 1473 1479 1482 1488 1493 1496 1499 1503 1507 1512 1519 1523 1527 1529
1493 1486 1485 1488 1487 1484 1489 1482 1483 1485 1499 1500 1499 1514 1494 1489 1487 1484 1476 1471 1468 1466 1464 1462 1463 1465 1463 1462 1463 1463 1465 1469 1473 1478 1483 1489 1492 1496 1501 1508 1513 1519 1522 1524
1486 1482 1483 1482 1481 1482 1480 1485 1495 1502 1508 1522 1502 1510 1505 1492 1485 1484 1480 1477 1472 1468 1466 1464 1462 1460 1459 1458 1459 1459 1459 1460 1465 1469 1473 1478 1484 1489 1493 1497 1504 1510 1515 1518
1490 1487 1483 1482 1486 1485 1487 1501 1529 1522 1529 1526 1503 1510 1495 1482 1481 1481 1479 1476 1473 1470 1467 1464 1462 1457 1455 1454 1454 1454 1450 1448 1453 1458 1465 1469 1469 1480 1481 1488 1493 1499 1505 1508
1506 1512 1489 1484 1485 1490 1495 1501 1529 1532 1538 1523 1510 1514 1492 1479 1479 1478 1477 1476 1474 1472 1469 1465 1462 1458 1453 1452 1448 1445 1440 1442 1445 1450 1456 1463 1465 1468 1474 1476 1482 1488 1493 1497
1505 1503 1488 1486 1484 1487 1494 1510 1502 1520 1526 1529 1517 1497 1481 1480 1479 1477 1476 1475 1472 1471 1468 1465 1462 1459 1454 1448 1446 1441 1437 1439 1441 1445 1450 1456 1461 1461 1465 1467 1472 1479 1484 1490
1496 1506 1492 1487 1485 1487 1492 1495 1513 1524 1527 1525 1520 1512 1501 1485 1482 1477 1474 1471 1470 1469 1467 1464 1460 1457 1453 1447 1443 1440 1437 1438 1442 1444 1447 1450 1455 1454 1457 1462 1464 1469 1477 1484
1492 1502 1501 1492 1496 1500 1502 1506 1513 1522 1529 1535 1537 1517 1486 1482 1478 1477 1473 1469 1467 1464 1463 1461 1459 1455 1451 1445 1441 1439 1439 1439 1441 1443 1445 1446 1448 1447 1450 1453 1459 1462 1467 1476
1493 1507 1514 1500 1495 1495 1496 1500 1510 1527 1525 1528 1530 1519 1477 1477 1475 1472 1469 1466 1465 1463 1461 1460 1459 1455 1450 1444 1440 1439 1439 1440 1439 1440 1442 1443 1443 1445 1443 1447 1453 1453 1461 1467
1491 1509 1525 1515 1507 1497 1498 1498 1503 1514 1521 1522 1527 1512 1475 1475 1473 1471 1468 1465 1462 1461 1458 1457 1457 1454 1450 1446 1442 1440 1439 1439 1439 1439 1439 1440 1440 1438 1439 1442 1445 1448 1452 1460
1489 1508 1509 1523 1509 1502 1507 1499 1498 1506 1522 1515 1512 1495 1482 1475 1472 1469 1467 1464 1461 1459 1456 1453 1453 1453 1450 1448 1445 1442 1439 1436 1433 1430 1430 1432 1434 1434 1434 1437 1441 1446 1446 1450
1492 1503 1504 1501 1499 1498 1497 1495 1493 1500 1496 1501 1488 1493 1479 1472 1470 1468 1467 1464 1461 1458 1454 1451 1450 1450 1449 1447 1445 1443 1440 1436 1430 1427 1426 1427 1428 1428 1429 1432 1435 1439 1440 1439
1495 1502 1502 1501 1493 1494 1495 1488 1486 1483 1482 1486 1484 1483 1470 1469 1468 1466 1464 1462 1459 1455 1452 1450 1448 1447 1446 1444 1443 1441 1439 1435 1431 1428 1427 1426 1427 1427 1426 1429 1431 1435 1437 1434
1495 1501 1506 1501 1492 1493 1500 1484 1481 1477 1475 1476 1483 1474 1470 1467 1467 1464 1461 1459 1456 1452 1449 1447 1445 1444 1443 1442 1441 1441 1439 1434 1433 1432 1430 1429 1429 1429 1430 1428 1426 1425 1426 1426
1496 1502 1509 1508 1499 1508 1483 1475 1473 1474 1472 1472 1471 1469 1469 1467 1464 1462 1459 1455 1453 1451 1448 1445 1444 1442 1440 1440 1440 1439 1436 1433 1432 1431 1431 1431 1430 1429 1427 1426 1423 1421 1420 1420
1491 1500 1507 1507 1511 1494 1478 1475 1476 1476 1476 1467 1469 1467 1465 1464 1462 1458 1456 1454 1452 1450 1447 1445 1443 1442 1441 1440 1437 1437 1433 1433 1434 1434 1432 1431 1430 1430 1430 1426 1419 1420 1416 1415
1491 1495 1501 1511 1505 1501 1481 1475 1474 1475 1485 1467 1466 1464 1463 1463 1466 1458 1454 1453 1450 1447 1445 1444 1442 1441 1441 1441 1440 1437 1435 1435 1432 1432 1431 1431 1428 1427 1423 1420 1414 1413 1412 1412
1496 1498 1498 1502 1501 1489 1476 1473 1474 1484 1485 1464 1464 1461 1460 1461 1457 1454 1452 1449 1447 1445 1443 1442 1442 1441 1441 1440 1440 1439 1438 1436 1435 1435 1435 1434 1430 1423 1419 1417 1417 1417 1414 1411
1493 1497 1500 1501 1498 1494 1472 1475 1478 1469 1463 1462 1460 1458 1456 1454 1451 1450 1448 1445 1443 1441 1441 1442 1442 1442 1441 1440 1441 1440 1439 1439 1440 1440 1439 1438 1432 1426 1423 1421 1418 1414 1414 1413
1493 1488 1492 1490 1486 1468 1468 1467 1463 1462 1461 1459 1457 1455 1452 1450 1447 1446 1444 1442 1442 1440 1440 1440 1441 1445 1443 1442 1441 1439 1440 1440 1441 1441 1440 1438 1436 1431 1428 1427 1425 1420 1420 1420
1481 1479 1483 1482 1468 1464 1461 1461 1459 1459 1457 1456 1454 1452 1449 1446 1443 1441 1439 1437 1439 1439 1438 1440 1441 1442 1442 1443 1442 1442 1442 1442 1441 1441 1440 1439 1438 1435 1434 1432 1432 1428 1427 1426
1479 1477 1476 1476 1465 1460 1456 1455 1457 1456 1455 1453 1451 1448 1447 1443 1440 1436 1433 1433 1435 1436 1437 1437 1438 1440 1442 1443 1443 1443 1442 1442 1442 1441 1441 1440 1439 1440 1437 1435 1435 1434 1433 1431
1472 1471 1475 1472 1459 1459 1456 1454 1454 1453 1452 1450 1448 1446 1444 1442 1439 1435 1433 1432 1433 1434 1436 1437 1438 1440 1441 1442 1443 1443 1443 1443 1443 1442 1441 1441 1439 1438 1438 1437 1436 1436 1437 1435